1512108000.2,33168,3.88,72142.8,-14.27,-15.85,-16.03,0,*62
1512108001.44,33169,3.88,72146.5,-14.27,-15.85,-16.03,0,*63
1512108002.69,33170,3.88,72146.5,-14.27,-15.85,-16.03,0,*6B
1512108003.93,33171,3.88,72142.0,-14.27,-15.85,-16.03,0,*6A
1512108005.18,33172,3.88,72144.8,-14.27,-15.85,-16.03,0,*69
1512108006.42,33173,3.88,72146.0,-14.27,-15.85,-16.03,0,*68
1512108007.67,33174,3.88,72142.5,-14.27,-15.85,-16.03,0,*6F
1512108008.94,33175,3.88,72144.0,-14.27,-15.85,-16.13,0,*6F
1512108010.21,33176,3.88,72146.8,-14.27,-15.89,-16.13,0,*60
1512108011.46,33177,3.88,72146.0,-14.27,-15.89,-16.03,0,*60
1512108012.7,33178,3.88,72150.5,-14.27,-15.85,-16.03,0,*63
1512108013.98,33179,3.88,72148.0,-14.27,-15.85,-16.13,0,*63
1512108015.22,33180,3.88,72144.0,-14.27,-15.85,-16.03,0,*64
1512108016.47,33181,3.88,72146.0,-14.27,-15.71,-15.89,0,*6F
1512108017.68,33182,3.88,72142.5,-14.27,-15.71,-15.99,0,*6D
1512108018.93,33183,3.88,72142.5,-14.27,-15.85,-15.99,0,*67
1512108020.17,33184,3.88,72140.0,-14.27,-15.85,-16.03,0,*60
1512108021.42,33185,3.88,72138.0,-14.27,-15.85,-16.03,0,*61
1512108022.64,33186,3.88,72136.0,-14.27,-15.75,-16.03,0,*6D
1512108023.89,33187,3.88,72138.8,-14.27,-15.75,-15.89,0,*6D
1512108025.14,33188,3.88,72140.8,-14.25,-15.71,-15.95,0,*69
1512108026.41,33189,3.88,72142.5,-14.25,-15.71,-15.85,0,*69
1512108027.69,33190,3.88,72142.8,-14.25,-15.67,-15.85,0,*66
1512108028.93,33191,3.88,72140.5,-14.27,-15.63,-15.89,0,*6D
1512108030.23,33192,3.88,72138.0,-14.25,-15.57,-15.81,0,*63
1512108031.51,33193,3.88,72132.8,-14.25,-15.53,-15.81,0,*66
1512108032.81,33194,3.88,72130.5,-14.25,-15.57,-15.81,0,*65
1512108034.08,33195,3.88,72134.0,-14.23,-15.57,-15.85,0,*66
1512108035.38,33196,3.88,72132.8,-14.25,-15.57,-15.81,0,*67
1512108036.65,33197,3.88,72134.8,-14.25,-15.67,-15.85,0,*61
1512108037.93,33198,3.88,72138.5,-14.23,-15.57,-15.81,0,*6F
1512108039.23,33199,3.88,72140.0,-14.25,-15.57,-15.81,0,*68
1512108040.5,33200,3.88,72142.5,-14.25,-15.67,-15.85,0,*6C
1512108041.77,33201,3.88,72140.5,-14.25,-15.57,-15.95,0,*6F
1512108043.0,33202,3.88,72142.8,-14.23,-15.67,-15.95,0,*69
1512108044.22,33203,3.88,72144.5,-14.23,-15.67,-15.95,0,*68
1512108045.47,33204,3.88,72142.5,-14.25,-15.71,-15.95,0,*6E
1512108046.74,33205,3.88,72140.8,-14.25,-15.81,-15.95,0,*60
1512108047.99,33206,3.88,72142.0,-14.23,-15.81,-15.99,0,*69
1512108049.24,33207,3.88,72142.0,-14.23,-15.95,-16.09,0,*67
1512108050.49,33208,3.88,72146.5,-14.23,-15.95,-16.13,0,*63
1512108051.78,33209,3.88,72146.5,-14.25,-15.81,-16.13,0,*61
1512108053.06,33210,3.88,72140.3,-14.25,-15.95,-16.09,0,*67
1512108054.31,33211,3.88,72142.5,-14.25,-15.95,-15.99,0,*6C
1512108055.55,33212,3.88,72146.8,-14.25,-15.95,-15.99,0,*6F
1512108056.83,33213,3.88,72148.0,-14.23,-15.85,-16.09,0,*63
1512108058.08,33214,3.88,72144.3,-14.23,-15.85,-15.99,0,*6E
1512108059.35,33215,3.88,72146.5,-14.25,-15.85,-15.99,0,*69
1512108060.62,33216,3.88,72142.8,-14.25,-15.85,-15.99,0,*6A
1512108061.89,33217,3.88,72144.0,-14.25,-15.81,-15.99,0,*6F
1512108063.16,33218,3.88,72144.3,-14.25,-15.81,-15.99,0,*60
1512108064.38,33219,3.88,72140.0,-14.23,-15.71,-15.95,0,*64
1512108065.63,33220,3.88,72140.8,-14.23,-15.81,-15.95,0,*61
1512108066.88,33221,3.88,72142.8,-14.25,-15.71,-15.95,0,*69
1512108068.15,33222,3.88,72142.0,-14.25,-15.85,-15.99,0,*6D
1512108069.38,33223,3.88,72140.0,-14.23,-15.71,-15.99,0,*61
1512108070.62,33224,3.88,72142.5,-14.23,-15.81,-15.99,0,*69
1512108071.89,33225,3.88,72142.3,-14.25,-15.85,-15.99,0,*6A
1512108073.17,33226,3.88,72142.8,-14.23,-15.81,-16.09,0,*61
1512108074.41,33227,3.88,72138.8,-14.23,-15.81,-15.99,0,*6A
1512108075.66,33228,3.88,72142.0,-14.23,-15.81,-15.99,0,*65
1512108076.96,33229,3.88,72142.3,-14.25,-15.81,-16.09,0,*68
1512108078.2,33230,3.88,72146.5,-14.23,-15.81,-15.99,0,*6C
1512108079.45,33231,3.88,72142.8,-14.23,-15.81,-15.99,0,*6D
1512108080.69,33232,3.88,72146.8,-14.25,-15.95,-15.99,0,*6D
1512108081.95,33233,3.88,72146.5,-14.23,-15.95,-16.09,0,*60
1512108083.22,33234,3.88,72150.8,-14.23,-16.09,-16.27,0,*6D
1512108084.5,33235,3.88,72146.8,-14.23,-16.09,-16.13,0,*6B
1512108085.74,33236,3.88,72144.8,-14.23,-15.99,-16.27,0,*65
1512108087.02,33237,3.88,72148.0,-14.23,-16.09,-16.27,0,*6E
1512108088.3,33238,3.88,72148.3,-14.23,-16.09,-16.31,0,*66
1512108089.54,33239,3.88,72150.3,-14.23,-15.99,-16.31,0,*6D
1512108090.84,33240,3.88,72150.3,-14.25,-16.09,-16.27,0,*68
1512108092.12,33241,3.88,72146.8,-14.23,-16.09,-16.31,0,*68
1512108093.42,33242,3.88,72146.0,-14.25,-16.09,-16.31,0,*6D
1512108094.72,33243,3.88,72148.8,-14.25,-16.09,-16.31,0,*6C
1512108096.02,33244,3.88,72144.5,-14.25,-16.09,-16.27,0,*6C
1512108097.28,33245,3.88,72144.8,-14.25,-15.99,-16.31,0,*60
1512108098.55,33246,3.88,72144.5,-14.25,-15.99,-16.13,0,*63
1512108099.85,33247,3.88,72148.5,-14.25,-16.09,-16.17,0,*6C
1512108101.12,33248,3.88,72148.3,-14.25,-15.99,-16.17,0,*69
1512108102.43,33249,3.88,72146.8,-14.25,-16.09,-16.17,0,*62
1512108103.7,33250,3.88,72148.5,-14.25,-15.99,-16.17,0,*60
1512108105.0,33251,3.88,72150.3,-14.25,-16.09,-16.31,0,*6F
1512108106.3,33252,3.88,72148.5,-14.25,-16.09,-16.31,0,*6C
1512108107.6,33253,3.88,72146.8,-14.25,-16.13,-16.31,0,*66
1512108108.87,33254,3.88,72148.0,-14.25,-16.17,-16.41,0,*62
1512108110.14,33255,3.88,72148.8,-14.25,-16.27,-16.45,0,*64
1512108111.4,33256,3.88,72148.8,-14.25,-16.31,-16.45,0,*60
1512108112.67,33257,3.88,72146.5,-14.25,-16.31,-16.55,0,*60
1512108113.94,33258,3.88,72148.8,-14.25,-16.27,-16.41,0,*6D
1512108115.19,33259,3.88,72148.0,-14.27,-16.13,-16.37,0,*68
1512108116.43,33260,3.88,72146.5,-14.27,-16.03,-16.31,0,*65
1512108117.68,33261,3.88,72142.3,-14.27,-16.03,-16.17,0,*60
1512108118.92,33262,3.88,72142.3,-14.27,-16.03,-16.23,0,*64
1512108120.16,33263,3.88,72140.5,-14.27,-15.99,-16.17,0,*62
1512108121.41,33264,3.88,72140.5,-14.27,-15.89,-16.03,0,*61
1512108122.66,33265,3.88,72144.5,-14.27,-15.85,-16.03,0,*6C
1512108123.89,33266,3.88,72150.0,-14.27,-15.99,-16.13,0,*63
1512108125.17,33267,3.88,72146.5,-14.27,-15.89,-16.17,0,*67
1512108126.41,33268,3.88,72144.5,-14.27,-15.99,-16.17,0,*69
1512108127.65,33269,3.88,72148.5,-14.27,-15.99,-16.13,0,*6C
1512108128.92,33270,3.88,72146.0,-14.27,-15.85,-16.13,0,*69
1512108130.15,33271,3.88,72144.0,-14.27,-15.75,-16.03,0,*66
1512108131.39,33272,3.88,72150.5,-14.27,-15.85,-16.03,0,*6A
1512108132.64,33273,3.88,72142.3,-14.27,-15.85,-16.03,0,*6B
1512108133.91,33274,3.88,72146.3,-14.27,-15.85,-16.13,0,*6D
1512108135.15,33275,3.88,72144.5,-14.27,-15.85,-16.03,0,*6D
1512108136.4,33276,3.88,72142.0,-14.27,-15.89,-16.03,0,*62
1512108137.67,33277,3.88,72150.3,-14.27,-15.89,-16.13,0,*62
1512108138.95,33278,3.88,72144.5,-14.27,-15.89,-16.13,0,*6D
1512108140.22,33279,3.88,72148.3,-14.27,-15.89,-16.13,0,*6C
1512108141.49,33280,3.88,72144.3,-14.27,-15.89,-16.13,0,*6A
1512108142.76,33281,3.88,72148.8,-14.27,-15.89,-16.13,0,*6B
1512108144.0,33282,3.88,72150.5,-14.27,-15.99,-16.13,0,*69
1512108145.24,33283,3.88,72146.0,-14.27,-15.99,-16.23,0,*6B
1512108146.47,33284,3.88,72150.3,-14.27,-15.99,-16.23,0,*6C
1512108147.72,33285,3.88,72150.0,-14.27,-16.03,-16.23,0,*6D
1512108148.96,33286,3.88,72150.0,-14.27,-15.99,-16.13,0,*6D
1512108150.23,33287,3.88,72148.3,-14.27,-15.89,-16.17,0,*69
1512108151.5,33288,3.88,72144.3,-14.27,-15.89,-16.13,0,*62
1512108152.75,33289,3.88,72148.3,-14.27,-15.89,-16.03,0,*62
1512108153.99,33290,3.88,72146.5,-14.27,-15.99,-16.13,0,*6A
1512108155.23,33291,3.88,72146.3,-14.27,-15.99,-16.17,0,*6F
1512108156.47,33292,3.88,72146.8,-14.27,-15.99,-16.17,0,*6C
1512108157.71,33293,3.88,72150.0,-14.27,-15.99,-16.23,0,*6A
1512108158.96,33294,3.88,72148.0,-14.27,-16.03,-16.17,0,*6A
1512108160.2,33295,3.88,72148.0,-14.27,-16.03,-16.23,0,*6C
1512108161.48,33296,3.88,72150.3,-14.27,-16.13,-16.23,0,*6E
1512108162.72,33297,3.88,72154.0,-14.27,-16.03,-16.23,0,*6E
1512108163.99,33298,3.88,72150.0,-14.27,-16.13,-16.31,0,*63
1512108165.24,33299,3.88,72148.0,-14.27,-16.03,-16.17,0,*67
1512108166.49,33300,3.88,72148.8,-14.27,-16.03,-16.17,0,*66
1512108167.73,33301,3.88,72150.3,-14.27,-15.99,-16.17,0,*67
1512108168.97,33302,3.88,72144.5,-14.27,-15.99,-16.23,0,*63
1512108170.21,33303,3.88,72144.8,-14.27,-15.99,-16.17,0,*65
1512108171.45,33304,3.88,72144.5,-14.27,-15.99,-16.31,0,*66
1512108172.69,33305,3.88,72136.3,-14.27,-15.99,-16.17,0,*63
1512108173.94,33306,3.88,72136.8,-14.27,-16.03,-16.17,0,*60
1512108175.18,33307,3.88,72138.8,-14.27,-16.03,-16.23,0,*66
1512108176.45,33308,3.88,72142.5,-14.27,-16.13,-16.31,0,*6B
1512108177.73,33309,3.88,72140.8,-14.27,-16.13,-16.17,0,*6E
1512108178.97,33310,3.88,72144.0,-14.27,-16.03,-16.23,0,*60
1512108180.22,33311,3.88,72146.5,-14.27,-16.03,-16.17,0,*66
1512108181.46,33312,3.88,72146.0,-14.27,-16.03,-16.23,0,*62
1512108182.71,33313,3.88,72142.3,-14.27,-16.23,-16.37,0,*64
1512108183.95,33314,3.88,72146.3,-14.27,-16.13,-16.37,0,*60
1512108185.19,33315,3.88,72140.0,-14.27,-16.23,-16.45,0,*67
1512108186.43,33316,3.88,72144.3,-14.27,-16.37,-16.51,0,*64
1512108187.7,33317,3.88,72142.3,-14.27,-16.31,-16.51,0,*63
1512108188.96,33318,3.88,72140.0,-14.25,-16.31,-16.45,0,*6B
1512108190.22,33319,3.88,72140.0,-14.27,-16.31,-16.51,0,*6D
1512108191.48,33320,3.88,72142.8,-14.27,-16.31,-16.51,0,*67
1512108192.72,33321,3.88,72138.8,-14.27,-16.31,-16.45,0,*63
1512108193.98,33322,3.88,72140.0,-14.27,-16.31,-16.51,0,*65
1512108195.25,33323,3.88,72146.5,-14.27,-16.23,-16.51,0,*67
1512108196.52,33324,3.88,72146.0,-14.27,-16.17,-16.31,0,*61
1512108197.76,33325,3.88,72146.8,-14.27,-16.13,-16.37,0,*62
1512108199.01,33326,3.88,72140.5,-14.27,-16.23,-16.37,0,*62
1512108200.25,33327,3.88,72140.8,-14.27,-16.17,-16.37,0,*64
1512108201.52,33328,3.88,72140.0,-14.27,-16.13,-16.31,0,*69
1512108202.83,33329,3.88,72142.8,-14.31,-16.09,-16.23,0,*67
1512108204.1,33330,3.88,72140.5,-14.31,-15.95,-16.23,0,*69
1512108205.37,33331,3.88,72146.5,-14.31,-15.95,-16.09,0,*60
1512108206.68,33332,3.88,72142.0,-14.31,-15.89,-16.09,0,*6E
1512108207.98,33333,3.88,72144.8,-14.31,-15.89,-16.09,0,*6F
1512108209.28,33334,3.88,72144.3,-14.31,-15.89,-16.09,0,*68
1512108210.52,33335,3.88,72146.3,-14.27,-15.99,-16.13,0,*64
1512108211.77,33336,3.88,72146.8,-14.27,-16.03,-16.17,0,*63
1512108213.05,33337,3.88,72148.0,-14.27,-16.13,-16.31,0,*67
1512108214.32,33338,3.88,72148.0,-14.27,-16.17,-16.31,0,*6C
1512108215.58,33339,3.88,72146.3,-14.27,-16.17,-16.51,0,*6B
1512108216.83,33340,3.88,72146.3,-14.27,-16.17,-16.45,0,*60
1512108218.07,33341,3.88,72148.5,-14.27,-16.03,-16.31,0,*67
1512108219.31,33342,3.88,72146.0,-14.27,-16.03,-16.23,0,*67
1512108220.56,33343,3.88,72146.5,-14.27,-16.03,-16.17,0,*61
1512108221.84,33344,3.88,72142.5,-14.31,-15.95,-16.17,0,*6D
1512108223.05,33345,3.88,72146.8,-14.27,-15.99,-16.03,0,*62
1512108224.29,33346,3.88,72148.0,-14.27,-15.99,-16.13,0,*60
1512108225.53,33347,3.88,72148.3,-14.27,-15.99,-16.13,0,*61
1512108226.77,33348,3.88,72144.8,-14.27,-15.99,-16.13,0,*6E
1512108228.01,33349,3.88,72146.0,-14.27,-15.99,-16.17,0,*6B
1512108229.25,33350,3.88,72144.8,-14.27,-15.99,-16.17,0,*63
1512108230.49,33351,3.88,72142.5,-14.27,-15.99,-16.13,0,*66
1512108231.74,33352,3.88,72146.8,-14.27,-15.89,-16.03,0,*65
1512108232.98,33353,3.88,72144.0,-14.27,-15.89,-16.03,0,*64
1512108234.25,33354,3.88,72142.5,-14.27,-15.85,-16.13,0,*6E
1512108235.53,33355,3.88,72142.5,-14.27,-15.89,-16.13,0,*63
1512108236.76,33356,3.88,72140.3,-14.27,-15.99,-16.23,0,*62
1512108238.03,33357,3.88,72138.3,-14.31,-16.03,-16.27,0,*60
1512108239.27,33358,3.88,72136.3,-14.27,-15.99,-16.13,0,*6F
1512108240.52,33359,3.88,72142.8,-14.27,-15.99,-16.17,0,*6A
1512108241.75,33360,3.81,72138.5,-14.27,-15.99,-16.23,0,*67
1512108242.99,33361,3.88,72144.0,-14.27,-15.99,-16.23,0,*66
1512108244.29,33362,3.88,72140.3,-14.31,-16.09,-16.27,0,*6C
1512108245.59,33363,3.88,72144.0,-14.31,-16.09,-16.23,0,*69
1512108246.84,33364,3.88,72140.5,-14.27,-16.03,-16.23,0,*63
1512108248.08,33365,3.88,72136.0,-14.27,-16.03,-16.23,0,*62
1512108249.32,33366,3.88,72140.8,-14.27,-16.03,-16.31,0,*62
1512108250.6,33367,3.88,72140.3,-14.27,-16.13,-16.23,0,*61
1512108251.84,33368,3.88,72146.0,-14.27,-16.03,-16.23,0,*6F
1512108253.11,33369,3.88,72144.0,-14.31,-16.17,-16.37,0,*69
1512108254.39,33370,3.88,72142.5,-14.31,-16.09,-16.37,0,*6E
1512108255.66,33371,3.88,72146.0,-14.31,-16.17,-16.37,0,*60
1512108256.93,33372,3.88,72150.5,-14.31,-16.17,-16.37,0,*63
1512108258.24,33373,3.88,72148.3,-14.31,-16.09,-16.23,0,*68
1512108259.54,33374,3.88,72148.0,-14.31,-16.09,-16.27,0,*6B
1512108260.84,33375,3.88,72148.5,-14.31,-16.09,-16.27,0,*6A
1512108262.12,33376,3.88,72146.5,-14.33,-16.09,-16.27,0,*6B
1512108263.39,33377,3.88,72144.0,-14.31,-16.17,-16.37,0,*66
1512108264.69,33378,3.88,72148.3,-14.31,-16.09,-16.23,0,*63
1512108265.97,33379,3.88,72146.3,-14.31,-16.03,-16.17,0,*6F
1512108267.24,33380,3.88,72148.0,-14.31,-15.95,-16.17,0,*65
1512108268.52,33381,3.88,72150.8,-14.31,-16.03,-16.09,0,*67
1512108269.8,33382,3.88,72146.5,-14.31,-16.03,-16.17,0,*6B
1512108271.05,33383,3.88,72152.3,-14.33,-15.95,-16.17,0,*64
1512108272.32,33384,3.88,72150.8,-14.31,-16.03,-16.27,0,*6E
1512108273.59,33385,3.88,72148.5,-14.31,-16.03,-16.17,0,*6C
1512108274.87,33386,3.88,72148.3,-14.31,-16.03,-16.17,0,*6F
1512108276.14,33387,3.88,72150.3,-14.31,-16.03,-16.23,0,*69
1512108277.45,33388,3.88,72154.5,-14.31,-16.09,-16.23,0,*6C
1512108278.75,33389,3.88,72148.3,-14.31,-16.09,-16.27,0,*69
1512108280.05,33390,3.88,72150.0,-14.31,-16.09,-16.23,0,*65
1512108281.35,33391,3.88,72148.8,-14.31,-16.09,-16.27,0,*60
1512108282.63,33392,3.88,72146.8,-14.31,-16.09,-16.37,0,*62
1512108283.93,33393,3.88,72154.5,-14.31,-16.17,-16.27,0,*6D
1512108285.23,33394,3.88,72148.0,-14.31,-16.09,-16.23,0,*61
1512108286.53,33395,3.88,72146.3,-14.31,-16.09,-16.27,0,*64
1512108287.8,33396,3.88,72148.0,-14.31,-15.95,-16.23,0,*65
1512108289.08,33397,3.88,72152.3,-14.31,-16.03,-16.17,0,*6F
1512108290.35,33398,3.88,72150.3,-14.31,-16.03,-16.17,0,*60
1512108291.63,33399,3.88,72150.5,-14.31,-16.03,-16.17,0,*61
1512108292.9,33400,3.88,72154.5,-14.31,-16.03,-16.27,0,*65
1512108294.17,33401,3.88,72152.3,-14.31,-16.03,-16.23,0,*60
1512108295.45,33402,3.88,72150.8,-14.31,-16.03,-16.23,0,*63
1512108296.71,33403,3.88,72148.0,-14.31,-16.03,-16.23,0,*62
1512108297.99,33404,3.88,72148.8,-14.31,-15.95,-16.17,0,*6E
1512108299.27,33405,3.88,72144.8,-14.31,-15.95,-16.09,0,*60
1512108300.57,33406,3.88,72150.3,-14.31,-15.89,-16.09,0,*6E
1512108301.87,33407,3.88,72148.8,-14.31,-15.81,-16.09,0,*67
1512108303.15,33408,3.88,72148.0,-14.33,-15.89,-16.17,0,*6D
1512108304.45,33409,3.88,72144.5,-14.31,-15.81,-16.09,0,*69
1512108305.72,33410,3.88,72146.0,-14.27,-15.85,-15.89,0,*69
1512108306.97,33411,3.88,72146.3,-14.27,-15.75,-15.89,0,*67
1512108308.24,33412,3.88,72154.3,-14.31,-15.81,-16.03,0,*69
1512108309.51,33413,3.88,72148.5,-14.31,-15.89,-16.03,0,*60
1512108310.79,33414,3.88,72150.0,-14.31,-15.81,-15.95,0,*63
1512108312.01,33415,3.88,72150.3,-14.27,-15.75,-15.99,0,*62
1512108313.23,33416,3.88,72148.8,-14.27,-15.75,-15.99,0,*61
1512108314.48,33417,3.88,72152.0,-14.27,-15.85,-15.99,0,*6F
1512108315.72,33418,3.88,72152.0,-14.27,-15.85,-15.99,0,*60
1512108316.93,33419,3.88,72154.3,-14.27,-15.99,-16.03,0,*6C
1512108318.18,33420,3.88,72154.8,-14.27,-15.89,-16.03,0,*67
1512108319.45,33421,3.88,72152.3,-14.27,-15.85,-16.13,0,*6B
1512108320.7,33422,3.88,72152.8,-14.27,-15.85,-15.99,0,*69
1512108321.94,33423,3.88,72150.3,-14.27,-15.71,-15.89,0,*62
1512108323.19,33424,3.88,72148.8,-14.27,-15.71,-15.89,0,*65
1512108324.41,33425,3.88,72152.3,-14.27,-15.75,-15.99,0,*61
1512108325.63,33426,3.88,72154.5,-14.27,-15.75,-15.99,0,*62
1512108326.85,33427,3.88,72154.3,-14.27,-15.75,-15.99,0,*63
1512108328.1,33428,3.88,72154.8,-14.27,-15.85,-15.99,0,*63
1512108329.34,33429,3.88,72154.0,-14.27,-15.89,-16.03,0,*6E
1512108330.58,33430,3.88,72156.0,-14.27,-15.99,-16.17,0,*62
1512108331.82,33431,3.88,72152.3,-14.27,-15.99,-16.23,0,*64
1512108333.06,33432,3.88,72152.8,-14.27,-15.99,-16.17,0,*60
1512108334.31,33433,3.88,72156.3,-14.27,-15.99,-16.17,0,*61
1512108335.54,33434,3.88,72150.5,-14.27,-15.99,-16.23,0,*61
1512108336.78,33435,3.88,72148.5,-14.27,-15.99,-16.13,0,*63
1512108338.03,33436,3.81,72146.3,-14.27,-15.89,-16.03,0,*60
1512108339.27,33437,3.88,72150.3,-14.27,-15.85,-16.03,0,*6D
1512108340.52,33438,3.88,72150.0,-14.27,-15.85,-16.03,0,*62
1512108341.76,33439,3.88,72150.3,-14.27,-15.85,-16.03,0,*63
1512108343.07,33440,3.88,72144.0,-14.31,-15.89,-16.09,0,*6C
1512108344.28,33441,3.88,72150.3,-14.27,-15.99,-16.03,0,*61
1512108345.53,33442,3.88,72154.3,-14.27,-15.89,-16.03,0,*63
1512108346.8,33443,3.88,72152.8,-14.27,-15.89,-16.13,0,*63
1512108348.01,33444,3.88,72158.0,-14.27,-15.99,-16.03,0,*64
1512108349.26,33445,3.88,72154.0,-14.27,-16.03,-16.23,0,*67
1512108350.53,33446,3.88,72150.3,-14.27,-16.13,-16.31,0,*66
1512108351.8,33447,3.88,72156.3,-14.27,-16.13,-16.31,0,*67
1512108353.05,33448,3.88,72154.5,-14.27,-16.13,-16.37,0,*6E
1512108354.29,33449,3.88,72154.5,-14.27,-16.13,-16.37,0,*6F
1512108355.57,33450,3.88,72158.3,-14.27,-16.13,-16.31,0,*61
1512108356.81,33451,3.88,72152.5,-14.27,-16.03,-16.17,0,*65
1512108358.09,33452,3.88,72152.3,-14.27,-16.13,-16.31,0,*63
1512108359.33,33453,3.88,72154.3,-14.27,-16.13,-16.37,0,*64
1512108360.58,33454,3.88,72150.5,-14.27,-16.13,-16.37,0,*63
1512108361.82,33455,3.88,72144.5,-14.27,-16.03,-16.31,0,*65
1512108363.07,33456,3.88,72148.0,-14.27,-16.03,-16.23,0,*65
1512108364.37,33457,3.88,72150.8,-14.31,-16.09,-16.23,0,*69
1512108365.64,33458,3.88,72150.5,-14.31,-15.95,-16.17,0,*67
1512108366.92,33459,3.88,72148.5,-14.31,-16.03,-16.09,0,*65
1512108368.2,33460,3.88,72148.3,-14.31,-16.03,-16.17,0,*60
1512108369.47,33461,3.88,72148.5,-14.31,-16.03,-16.17,0,*61
1512108370.75,33462,3.88,72148.3,-14.31,-16.03,-16.17,0,*62
1512108372.05,33463,3.88,72150.3,-14.31,-16.09,-16.27,0,*6A
1512108373.33,33464,3.88,72150.0,-14.27,-16.09,-16.23,0,*6E
1512108374.6,33465,3.88,72148.8,-14.31,-16.03,-16.23,0,*62
1512108375.85,33466,3.88,72144.5,-14.33,-16.03,-16.09,0,*6B
1512108377.12,33467,3.88,72150.5,-14.31,-16.03,-16.17,0,*67
1512108378.4,33468,3.88,72148.0,-14.31,-15.95,-16.17,0,*64
1512108379.68,33469,3.88,72154.8,-14.31,-16.03,-16.17,0,*69
1512108380.98,33470,3.88,72154.3,-14.31,-16.17,-16.27,0,*67
1512108382.23,33471,3.88,72150.3,-14.33,-16.09,-16.41,0,*6B
1512108383.5,33472,3.88,72148.3,-14.31,-16.09,-16.37,0,*6B
1512108384.78,33473,3.88,72152.0,-14.31,-16.17,-16.41,0,*64
1512108386.05,33474,3.88,72148.5,-14.31,-16.17,-16.37,0,*62
1512108387.33,33475,3.88,72150.0,-14.31,-16.17,-16.41,0,*62
1512108388.58,33476,3.88,72150.5,-14.33,-16.17,-16.41,0,*63
1512108389.85,33477,3.88,72152.8,-14.31,-16.17,-16.41,0,*60
1512108391.1,33478,3.88,72156.3,-14.33,-16.17,-16.37,0,*6C
1512108392.38,33479,3.88,72152.3,-14.31,-16.17,-16.41,0,*6E
1512108393.68,33480,3.88,72154.3,-14.31,-16.17,-16.27,0,*68
1512108394.98,33481,3.88,72152.5,-14.31,-16.09,-16.27,0,*66
1512108396.22,33482,3.88,72152.3,-14.33,-16.03,-16.27,0,*6D
1512108397.46,33483,3.88,72156.8,-14.27,-15.99,-16.23,0,*6D
1512108398.73,33484,3.88,72152.8,-14.31,-16.03,-16.23,0,*6D
1512108400.0,33485,3.88,72154.8,-14.31,-16.03,-16.23,0,*6C
1512108401.25,33486,3.88,72156.5,-14.33,-16.03,-16.17,0,*6A
1512108402.53,33487,3.88,72156.5,-14.31,-15.95,-16.17,0,*65
1512108403.78,33488,3.88,72154.0,-14.33,-15.95,-16.17,0,*68
1512108405.05,33489,3.88,72150.5,-14.31,-16.03,-16.17,0,*67
1512108406.32,33490,3.88,72152.5,-14.31,-16.03,-16.23,0,*68
1512108407.57,33491,3.88,72158.0,-14.27,-15.99,-16.17,0,*69
1512108408.84,33492,3.88,72154.0,-14.31,-16.03,-16.23,0,*6A
1512108410.11,33493,3.88,72152.5,-14.31,-16.03,-16.23,0,*6B
1512108411.35,33494,3.88,72154.0,-14.33,-16.03,-16.27,0,*6A
1512108412.59,33495,3.88,72152.8,-14.27,-15.99,-16.23,0,*6A
1512108413.86,33496,3.88,72152.3,-14.31,-16.03,-16.27,0,*6A
1512108415.13,33497,3.88,72152.5,-14.31,-16.03,-16.23,0,*6F
1512108416.38,33498,3.81,72148.5,-14.33,-16.03,-16.17,0,*65
1512108417.66,33499,3.88,72152.3,-14.31,-16.03,-16.09,0,*69
1512108418.94,33500,3.88,72150.8,-14.31,-15.95,-16.17,0,*6B
1512108420.21,33501,3.81,72150.3,-14.31,-15.95,-16.09,0,*65
1512108421.47,33502,3.88,72154.5,-14.33,-15.95,-16.17,0,*6B
1512108422.74,33503,3.88,72152.3,-14.33,-15.89,-16.17,0,*67
1512108424.02,33504,3.88,72154.8,-14.33,-15.89,-16.09,0,*6F
1512108425.3,33505,3.88,72148.5,-14.33,-15.89,-16.09,0,*6E
1512108426.57,33506,3.88,72150.0,-14.31,-15.95,-16.09,0,*62
1512108427.85,33507,3.88,72152.0,-14.31,-16.03,-16.09,0,*6F
1512108429.12,33508,3.88,72152.5,-14.31,-16.03,-16.23,0,*68
1512108430.39,33509,3.88,72152.8,-14.31,-15.95,-16.23,0,*65
1512108431.66,33510,3.88,72150.3,-14.31,-15.95,-16.23,0,*6D
1512108432.94,33511,3.88,72154.0,-14.31,-16.03,-16.17,0,*67
1512108434.22,33512,3.88,72152.5,-14.31,-15.95,-16.17,0,*68
1512108435.49,33513,3.88,72150.8,-14.31,-15.95,-16.09,0,*66
1512108436.77,33514,3.88,72148.0,-14.31,-15.95,-16.09,0,*61
1512108438.07,33515,3.88,72150.0,-14.31,-15.89,-16.09,0,*6D
1512108439.35,33516,3.88,72150.0,-14.31,-15.89,-16.03,0,*64
1512108440.6,33517,3.88,72152.8,-14.33,-15.89,-16.03,0,*67
1512108441.9,33518,3.88,72152.5,-14.31,-15.89,-16.17,0,*6F
1512108443.15,33519,3.88,72154.5,-14.33,-16.03,-16.17,0,*6D
1512108444.43,33520,3.88,72152.8,-14.31,-15.95,-16.17,0,*69
1512108445.7,33521,3.88,72154.8,-14.31,-15.95,-16.17,0,*68
1512108446.98,33522,3.88,72148.5,-14.31,-16.03,-16.17,0,*67
1512108448.26,33523,3.88,72150.5,-14.31,-15.95,-16.09,0,*65
1512108449.5,33524,3.88,72148.8,-14.31,-15.95,-16.03,0,*68
1512108450.81,33525,3.88,72154.0,-14.31,-15.89,-16.17,0,*61
1512108452.06,33526,3.88,72150.3,-14.33,-15.95,-16.09,0,*62
1512108453.33,33527,3.88,72150.0,-14.31,-16.03,-16.17,0,*62
1512108454.61,33528,3.88,72154.0,-14.31,-15.95,-16.09,0,*6E
1512108455.91,33529,3.88,72154.0,-14.31,-15.89,-16.09,0,*62
1512108457.19,33530,3.88,72150.3,-14.31,-16.03,-16.09,0,*6B
1512108458.47,33531,3.88,72150.8,-14.31,-16.03,-16.17,0,*65
1512108459.74,33532,3.88,72150.5,-14.31,-16.03,-16.17,0,*66
1512108461.02,33533,3.88,72148.3,-14.31,-16.03,-16.17,0,*67
1512108462.32,33534,3.88,72150.0,-14.31,-16.09,-16.27,0,*69
1512108463.59,33535,3.88,72148.8,-14.31,-16.03,-16.23,0,*66
1512108464.87,33536,3.88,72150.0,-14.31,-15.95,-16.09,0,*61
1512108466.15,33537,3.88,72146.5,-14.31,-16.03,-16.17,0,*63
1512108467.39,33538,3.81,72150.0,-14.27,-15.99,-16.13,0,*6F
1512108468.66,33539,3.88,72148.0,-14.31,-16.03,-16.23,0,*6A
1512108469.93,33540,3.88,72148.8,-14.31,-16.03,-16.17,0,*63
1512108471.21,33541,3.88,72152.0,-14.31,-15.95,-16.09,0,*61
1512108472.52,33542,3.88,72154.0,-14.31,-15.89,-16.09,0,*6F
1512108473.82,33543,3.88,72154.5,-14.31,-15.89,-16.09,0,*6E
1512108475.12,33544,3.88,72152.8,-14.31,-15.81,-16.09,0,*61
1512108476.42,33545,3.88,72158.0,-14.31,-15.81,-16.09,0,*60
1512108477.72,33546,3.88,72154.8,-14.31,-15.89,-16.09,0,*6B
1512108479.0,33547,3.88,72152.8,-14.31,-15.95,-16.09,0,*67
1512108480.28,33548,3.88,72158.5,-14.31,-15.95,-16.09,0,*68
1512108481.58,33549,3.88,72152.8,-14.31,-15.89,-16.09,0,*64
1512108482.88,33550,3.88,72152.5,-14.31,-15.81,-16.09,0,*64
1512108484.19,33551,3.88,72152.5,-14.31,-15.89,-16.09,0,*6D
1512108485.46,33552,3.88,72152.0,-14.31,-15.95,-16.17,0,*6C
1512108486.74,33553,3.88,72152.0,-14.31,-15.95,-16.17,0,*6D
1512108488.04,33554,3.88,72152.8,-14.31,-15.89,-16.09,0,*68
1512108489.35,33555,3.88,72148.8,-14.31,-15.89,-16.09,0,*69
1512108490.65,33556,3.88,72154.3,-14.31,-15.89,-16.09,0,*6A
1512108491.93,33557,3.88,72154.0,-14.31,-15.95,-16.09,0,*66
1512108493.21,33558,3.88,72156.5,-14.31,-16.03,-16.09,0,*65
1512108494.48,33559,3.88,72156.3,-14.31,-16.03,-16.09,0,*64
1512108495.76,33560,3.88,72154.0,-14.31,-15.95,-16.09,0,*62
1512108497.03,33561,3.88,72154.3,-14.27,-15.85,-16.13,0,*6E
1512108498.28,33562,3.88,72152.8,-14.27,-15.89,-16.03,0,*60
1512108499.55,33563,3.88,72154.3,-14.27,-15.89,-16.13,0,*60
1512108500.8,33564,3.88,72152.0,-14.27,-15.85,-16.03,0,*6A
1512108502.1,33565,3.88,72152.3,-14.31,-15.89,-16.09,0,*6A
1512108503.35,33566,3.88,72152.0,-14.27,-15.85,-16.03,0,*68
1512108504.57,33567,3.88,72152.8,-14.27,-15.75,-16.03,0,*66